Wind_Speed
15 16 18 20 21 25 25 26 27 27 29 30 31 32 32 33 35 36 37 38 39 40 42 42 41 41 42 43 42 42 42 43 44 44 44 44 44 44 43 42 42 42 42 42
15 16 18 21 22 23 24 26 27 28 28 29 31 32 33 34 34 35 37 38 38 39 41 41 41 41 41 42 43 43 43 43 43 43 43 43 43 43 42 42 42 42 42 42
15 16 18 20 21 22 24 26 27 29 28 28 30 32 33 34 35 35 36 37 38 39 41 42 42 42 42 43 43 43 43 43 43 43 43 43 43 43 43 42 43 43 43 43
16 16 17 18 20 22 24 24 25 27 29 29 29 29 31 33 35 36 37 38 39 39 40 41 41 41 42 42 42 42 43 43 43 44 44 43 43 43 43 43 43 44 44 43
18 18 18 18 20 22 24 25 24 25 27 28 28 29 31 32 33 35 36 37 38 39 39 40 40 41 41 42 42 42 42 42 42 43 43 44 44 44 43 43 43 43 44 42
18 19 19 18 20 20 22 23 24 25 26 28 29 29 30 31 32 33 34 35 37 38 38 39 40 41 42 42 41 41 41 41 42 42 42 43 43 43 43 44 43 43 43 42
18 19 20 19 19 20 21 22 23 25 26 29 31 31 31 31 32 33 34 34 35 36 37 38 40 40 41 41 42 42 42 41 41 42 42 42 42 42 43 43 43 42 42 42
18 18 19 19 20 20 20 21 23 24 25 28 30 31 32 33 32 33 33 34 34 35 36 37 38 39 39 40 40 41 42 43 43 42 42 42 42 42 42 41 41 40 40 40
19 19 19 20 20 21 21 20 21 23 24 26 28 30 32 33 32 33 33 33 33 34 34 35 36 37 38 38 39 40 41 41 42 42 42 42 41 40 40 40 40 39 38 39
20 19 20 20 21 21 21 20 20 21 21 24 26 28 29 31 31 32 32 33 33 34 34 34 34 35 35 37 38 38 38 39 40 40 40 40 39 39 39 39 38 38 38 37
20 19 19 20 21 21 21 21 20 20 21 22 24 25 27 28 29 31 32 32 32 33 33 33 33 33 34 35 35 36 35 35 36 37 38 38 38 38 38 37 37 37 37 36
21 20 20 20 21 21 21 21 21 21 21 21 22 23 24 26 28 28 29 30 31 32 32 33 33 34 34 34 34 34 33 33 33 33 35 36 37 37 37 36 36 37 37 37
22 21 21 21 21 21 21 21 21 21 21 20 21 22 23 24 26 27 27 28 29 31 31 32 32 33 34 34 34 34 33 33 32 32 33 34 34 35 35 35 35 36 36 36
22 22 22 21 21 21 21 21 21 21 21 20 21 21 21 22 24 26 27 28 28 29 30 31 31 31 32 32 32 32 32 32 32 31 32 32 32 32 33 33 33 34 34 34
23 23 22 22 22 22 21 21 21 20 20 20 20 20 21 21 22 23 24 26 27 28 29 30 30 30 30 30 30 31 31 31 31 31 31 31 31 31 31 31 31 31 31 32
23 23 23 23 22 21 20 20 20 19 18 19 20 19 20 21 22 22 22 23 24 26 27 28 29 29 29 29 29 30 30 30 30 30 31 30 30 30 30 30 29 28 28 28
23 22 22 22 22 21 21 20 19 19 18 18 19 19 19 20 21 21 22 22 23 24 25 26 27 28 28 28 28 29 29 29 29 29 29 29 29 29 29 28 28 27 26 26
22 22 22 22 22 21 21 19 18 18 17 17 18 19 19 19 20 21 21 22 22 24 24 24 25 26 27 27 27 28 28 28 28 28 28 28 27 27 26 27 26 26 25 24
22 22 21 21 21 20 19 18 17 17 16 16 16 16 16 17 18 18 19 19 20 21 22 22 23 24 25 25 25 26 26 26 26 26 26 26 26 25 25 24 24 24 24 23
23 22 22 21 20 18 17 17 16 16 16 16 16 16 16 17 17 17 18 18 19 19 19 20 21 22 22 23 23 23 24 24 25 24 24 24 24 24 24 23 22 22 22 22
23 23 22 20 19 17 16 16 15 15 15 15 15 15 16 17 17 17 17 17 18 19 19 20 21 21 22 22 22 22 23 23 23 23 23 23 23 22 22 21 21 21 21 21
24 22 21 20 18 17 16 15 15 15 15 15 15 15 15 15 16 16 16 16 17 18 18 19 20 20 21 22 22 22 22 22 22 22 21 22 22 21 21 20 20 20 20 19
23 22 20 18 17 16 15 15 15 15 15 15 15 15 15 15 15 15 15 15 16 17 17 17 18 18 19 20 20 21 21 21 21 21 21 21 21 21 20 20 19 19 18 18
22 21 19 17 16 15 15 15 16 16 15 15 15 14 14 14 14 15 15 15 15 15 16 16 16 17 17 18 18 19 19 20 20 20 20 20 20 20 19 19 19 18 17 17
22 20 17 16 15 15 15 15 16 16 16 16 15 14 13 14 14 15 15 15 15 15 15 15 15 16 16 17 17 17 17 18 18 18 19 19 19 18 18 18 17 17 16 16
21 19 17 16 15 15 15 15 15 15 15 15 14 13 13 13 14 14 14 14 14 14 14 14 15 15 15 16 16 16 16 16 17 17 17 17 17 17 16 16 16 16 15 15
20 18 16 15 15 15 15 15 15 14 14 13 13 13 13 12 12 13 13 13 13 13 13 13 14 14 14 15 15 16 16 16 16 16 16 16 16 15 15 15 15 15 15 15
Wind_Direction
270 265 259 253 247 247 248 248 250 249 247 245 245 245 243 240 239 239 238 238 237 237 238 239 239 240 241 243 243 244 244 245 246 247 250 252 254 256 257 258 260 262 263 266
274 269 263 256 249 250 251 252 252 251 247 246 246 246 243 241 241 241 241 240 239 238 238 238 238 239 241 242 244 245 245 245 246 247 250 252 254 256 256 258 260 262 265 267
279 275 271 263 257 253 252 254 254 252 248 248 248 247 245 242 241 241 241 241 240 240 239 239 240 240 241 243 245 246 247 247 247 247 250 252 254 255 257 258 260 262 264 267
287 282 277 272 264 259 255 255 255 253 250 248 248 247 246 244 243 241 241 242 241 241 241 241 241 242 242 244 246 247 248 248 249 250 251 253 253 254 257 258 260 262 263 265
294 290 285 279 272 266 259 258 257 255 250 248 248 247 244 244 244 243 242 242 242 242 243 243 242 242 243 245 246 247 248 249 250 251 251 252 254 255 257 258 260 262 263 265
297 294 290 286 279 272 267 263 260 257 253 247 246 248 246 245 245 244 243 242 242 242 243 243 243 244 244 245 246 246 247 248 249 250 251 252 254 255 256 258 260 261 263 265
298 293 290 289 283 279 274 269 263 260 256 251 249 249 248 247 246 245 243 243 243 242 242 243 243 244 245 245 246 246 247 248 249 250 251 253 255 256 257 258 260 262 264 266
300 295 294 288 284 284 281 274 267 262 258 255 252 250 250 249 248 246 244 244 243 243 243 243 243 243 244 245 246 247 248 249 250 251 252 254 255 256 258 258 260 264 265 266
300 294 290 288 286 285 281 277 271 266 260 257 254 251 250 250 249 247 245 244 244 243 243 243 243 243 243 244 245 247 249 249 249 251 253 254 255 256 257 258 261 264 265 267
305 299 293 288 286 286 282 278 274 271 265 260 256 253 250 249 249 248 246 245 245 245 244 243 243 243 244 245 245 246 248 250 250 250 251 252 253 255 257 259 262 263 265 266
306 301 297 293 290 289 284 279 277 274 268 264 260 257 254 250 248 247 246 245 245 245 245 244 244 244 244 245 245 246 249 250 249 249 250 251 253 255 257 259 261 263 264 266
307 302 299 297 293 292 289 284 280 275 267 264 261 258 256 252 248 247 247 245 245 245 246 246 246 246 247 246 245 246 247 249 250 251 251 251 253 254 256 258 260 262 264 266
306 303 301 297 294 293 291 288 284 277 270 266 261 258 257 254 250 247 246 246 246 246 246 246 246 247 247 246 245 245 246 247 248 249 250 251 252 254 256 258 260 263 265 267
305 303 302 298 296 294 290 287 284 279 274 271 266 260 257 254 251 249 249 248 248 247 246 246 246 247 247 246 246 246 246 246 247 248 249 250 252 254 257 259 262 264 266 268
304 302 301 300 298 296 292 288 283 279 274 272 269 263 259 256 253 252 250 249 248 248 247 247 247 246 246 245 244 245 245 245 247 248 249 251 253 256 258 260 263 265 267 267
305 302 300 299 299 298 294 288 283 279 276 272 269 266 262 258 254 253 252 251 250 249 248 248 247 246 245 245 244 244 244 245 247 248 249 251 253 255 258 260 262 264 266 267
309 306 303 300 298 297 294 289 286 282 278 275 272 267 263 259 256 255 254 253 251 249 248 247 247 246 245 244 243 243 244 245 247 248 249 251 253 255 257 259 261 262 264 265
312 309 306 303 300 296 291 289 287 284 282 280 276 269 264 260 257 258 258 257 253 251 250 248 246 245 245 245 243 243 244 246 247 247 249 250 251 253 255 258 260 262 263 264
316 313 310 308 304 296 291 289 288 285 283 281 278 272 265 261 261 261 260 259 255 252 251 249 247 246 244 243 242 242 243 243 244 245 245 246 248 251 254 257 258 258 260 262
316 314 311 309 304 297 291 288 287 287 285 281 278 272 267 263 262 261 260 260 256 253 252 251 249 247 245 244 241 240 241 241 241 241 243 244 247 250 252 254 255 255 258 259
315 313 312 309 303 296 290 288 288 288 286 284 280 275 269 265 262 261 260 259 257 255 255 254 251 248 247 246 242 239 239 241 242 243 243 245 245 247 249 251 253 254 256 257
315 312 310 307 303 295 288 286 287 288 288 286 282 277 271 266 262 260 258 259 257 255 255 253 251 249 246 243 241 241 241 242 242 241 241 241 242 244 246 248 250 251 253 256
316 314 311 307 301 293 288 286 286 287 288 287 284 279 272 265 261 258 258 258 256 256 255 252 250 248 244 241 240 239 239 239 239 238 238 239 240 242 244 245 247 248 250 252
315 313 310 306 301 297 293 289 286 286 286 286 285 279 272 264 259 256 256 256 255 254 254 251 247 242 240 237 236 236 236 235 236 236 237 237 238 240 242 243 245 247 247 248
313 311 307 304 301 298 296 293 290 286 284 284 282 277 270 263 259 257 257 256 253 253 252 248 243 238 235 234 234 234 233 232 232 233 234 235 236 237 238 240 241 241 242 242
311 308 304 302 300 299 298 296 294 291 285 280 277 274 270 264 261 259 256 255 254 251 248 244 238 233 231 232 233 232 230 228 227 229 231 232 233 235 236 236 235 236 236 236
308 304 301 300 298 298 298 297 296 293 288 281 274 272 269 265 262 259 255 253 250 247 244 239 234 230 228 230 230 228 226 225 225 226 227 229 230 232 233 234 234 233 231 231
Height
5585 5585 5585 5586 5587 5588 5589 5590 5592 5594 5596 5599 5600 5603 5606 5608 5611 5615 5619 5622 5626 5630 5634 5638 5642 5646 5649 5652 5656 5659 5663 5666 5669 5672 5675 5677 5679 5681 5683 5684 5686 5686 5687 5688
5581 5581 5580 5581 5582 5582 5583 5583 5585 5586 5589 5591 5593 5595 5597 5600 5603 5607 5610 5613 5617 5621 5624 5628 5632 5636 5639 5642 5646 5649 5653 5656 5659 5662 5665 5667 5669 5671 5672 5674 5675 5676 5677 5677
5576 5576 5575 5576 5576 5576 5577 5577 5578 5579 5582 5583 5585 5587 5589 5592 5595 5598 5601 5604 5608 5611 5615 5619 5622 5626 5629 5633 5636 5639 5642 5646 5649 5651 5654 5657 5658 5660 5662 5663 5664 5665 5666 5666
5571 5571 5570 5572 5569 5569 5569 5570 5570 5571 5573 5575 5576 5578 5581 5583 5586 5589 5592 5595 5599 5602 5605 5609 5612 5616 5619 5623 5626 5629 5632 5635 5638 5641 5643 5646 5648 5650 5651 5652 5653 5654 5655 5655
5566 5564 5564 5565 5563 5562 5562 5563 5563 5563 5564 5566 5568 5570 5572 5574 5577 5580 5583 5586 5589 5592 5596 5599 5602 5606 5609 5613 5616 5619 5622 5624 5627 5630 5632 5635 5637 5639 5640 5641 5643 5643 5644 5644
5561 5559 5558 5559 5557 5555 5555 5555 5556 5556 5557 5558 5559 5561 5564 5566 5568 5570 5573 5576 5579 5583 5586 5589 5592 5595 5599 5602 5605 5608 5611 5614 5616 5619 5621 5624 5625 5627 5629 5630 5631 5632 5633 5633
5556 5553 5552 5552 5550 5549 5550 5550 5548 5548 5548 5549 5551 5554 5556 5557 5559 5561 5564 5567 5570 5573 5576 5579 5582 5585 5588 5591 5595 5598 5600 5603 5605 5608 5610 5612 5614 5616 5618 5619 5620 5621 5622 5623
5551 5548 5550 5546 5545 5544 5543 5541 5541 5540 5540 5541 5543 5544 5546 5548 5550 5553 5555 5558 5561 5563 5566 5569 5572 5575 5578 5581 5584 5586 5589 5592 5595 5597 5599 5601 5603 5605 5606 5608 5609 5610 5611 5611
5547 5546 5543 5540 5538 5537 5535 5534 5533 5533 5533 5533 5534 5535 5537 5539 5542 5544 5546 5549 5551 5554 5557 5559 5562 5565 5568 5570 5573 5575 5578 5580 5583 5586 5588 5590 5592 5594 5596 5597 5598 5599 5600 5601
5540 5539 5537 5534 5532 5530 5529 5527 5526 5526 5525 5525 5526 5527 5528 5530 5533 5535 5537 5540 5542 5545 5547 5550 5552 5555 5558 5560 5563 5565 5567 5570 5572 5574 5577 5579 5581 5583 5585 5586 5588 5589 5590 5590
5534 5533 5531 5529 5526 5524 5523 5521 5520 5519 5518 5518 5519 5519 5520 5522 5524 5526 5528 5530 5533 5536 5538 5541 5543 5545 5548 5550 5553 5555 5557 5559 5561 5564 5566 5568 5571 5573 5574 5576 5577 5579 5579 5580
5529 5526 5524 5522 5520 5518 5516 5515 5513 5513 5512 5512 5512 5512 5512 5513 5515 5517 5519 5522 5524 5526 5529 5531 5534 5536 5538 5540 5543 5545 5547 5549 5552 5554 5556 5558 5560 5562 5564 5565 5567 5568 5569 5569
5522 5520 5517 5515 5513 5511 5509 5508 5506 5505 5505 5504 5504 5504 5505 5506 5507 5509 5511 5513 5515 5517 5519 5522 5524 5526 5528 5530 5533 5535 5538 5540 5542 5544 5546 5548 5550 5552 5554 5555 5556 5557 5558 5558
5515 5513 5511 5509 5507 5505 5503 5501 5500 5499 5498 5497 5497 5497 5498 5499 5500 5502 5503 5505 5506 5508 5510 5512 5514 5516 5518 5520 5523 5526 5528 5531 5533 5535 5537 5539 5541 5543 5544 5545 5546 5547 5547 5548
5509 5506 5504 5502 5500 5498 5495 5494 5492 5492 5491 5491 5490 5491 5491 5492 5493 5494 5495 5496 5498 5499 5501 5503 5505 5507 5509 5511 5514 5516 5519 5521 5523 5526 5528 5530 5532 5533 5535 5536 5536 5537 5537 5537
5502 5499 5497 5495 5493 5490 5488 5487 5485 5485 5484 5484 5484 5484 5484 5484 5485 5486 5487 5488 5489 5491 5492 5494 5496 5498 5500 5502 5504 5507 5509 5512 5514 5516 5519 5521 5522 5524 5525 5526 5527 5528 5528 5528
5496 5493 5490 5488 5486 5483 5482 5480 5478 5477 5477 5476 5476 5476 5476 5477 5478 5478 5479 5480 5481 5483 5484 5485 5487 5489 5491 5493 5496 5498 5501 5503 5505 5508 5510 5512 5514 5515 5516 5517 5518 5519 5520 5520
5489 5486 5483 5481 5478 5476 5474 5473 5472 5471 5470 5470 5469 5469 5469 5469 5470 5471 5472 5472 5473 5474 5476 5477 5479 5481 5483 5485 5487 5490 5492 5495 5497 5499 5501 5503 5505 5507 5508 5509 5510 5511 5512 5512
5483 5480 5477 5474 5472 5469 5468 5466 5465 5464 5464 5463 5462 5462 5462 5462 5463 5463 5464 5465 5466 5467 5468 5469 5471 5473 5475 5477 5479 5482 5484 5486 5489 5491 5493 5495 5497 5499 5500 5501 5502 5503 5504 5505
5477 5474 5471 5468 5465 5463 5462 5460 5459 5459 5458 5457 5456 5456 5456 5456 5456 5457 5458 5458 5459 5460 5461 5462 5464 5466 5468 5470 5472 5474 5477 5479 5481 5483 5485 5488 5490 5491 5493 5494 5495 5496 5497 5498
5471 5468 5465 5462 5460 5458 5456 5455 5454 5453 5452 5451 5450 5450 5450 5450 5450 5451 5451 5452 5453 5454 5455 5456 5457 5459 5461 5463 5465 5467 5470 5472 5474 5476 5478 5480 5482 5484 5486 5487 5488 5490 5491 5492
5465 5461 5458 5456 5454 5452 5451 5450 5449 5448 5447 5446 5445 5444 5444 5444 5444 5445 5446 5446 5447 5448 5449 5450 5451 5452 5454 5456 5458 5460 5462 5465 5467 5469 5471 5473 5475 5477 5479 5480 5482 5483 5484 5485
5458 5455 5452 5450 5448 5447 5445 5444 5443 5442 5441 5440 5439 5439 5438 5438 5439 5439 5440 5441 5441 5442 5442 5443 5444 5446 5447 5449 5451 5453 5456 5458 5460 5462 5464 5466 5469 5470 5472 5474 5475 5477 5478 5479
5452 5449 5447 5444 5443 5441 5440 5439 5438 5437 5436 5435 5434 5433 5433 5433 5433 5433 5434 5435 5435 5436 5437 5437 5439 5440 5442 5444 5445 5447 5450 5452 5454 5456 5458 5460 5462 5464 5466 5468 5469 5470 5472 5473
5446 5443 5441 5439 5438 5436 5435 5434 5432 5431 5430 5429 5428 5428 5427 5427 5427 5428 5428 5429 5430 5430 5431 5432 5433 5435 5436 5438 5440 5442 5444 5446 5448 5450 5452 5455 5457 5458 5460 5462 5463 5465 5466 5468
5440 5437 5435 5434 5432 5431 5430 5428 5427 5425 5424 5423 5423 5422 5422 5422 5422 5422 5423 5423 5424 5425 5426 5427 5428 5429 5431 5433 5435 5437 5439 5441 5443 5445 5447 5449 5451 5453 5455 5457 5458 5460 5461 5463
5434 5432 5430 5428 5427 5426 5424 5423 5421 5420 5419 5418 5417 5417 5417 5417 5417 5417 5417 5418 5419 5420 5420 5422 5423 5425 5427 5428 5430 5432 5434 5437 5439 5441 5443 5445 5447 5449 5450 5452 5453 5455 5457 5458